Location: Mascot Post Office (historical)
(40.2645°N, 99.5462°W)
Time: 16:50:58
(UTC+00:00)

GP-B - Pass Details

Date: 14 July 2020
Orbit: 631 x 635 km, 89.8° (Epoch: 04 August)

Event Time Altitude Azimuth Distance (km) Brightness Sun altitude
Rises 05:51:12 0° 357° (N) 2,934 7.8 -26.9°
Reaches altitude 10° 05:53:27 10° 353° (N) 2,021 6.7 -27.0°
Enters shadow 05:57:17 52° 304° (NW) 788 3.7 -27.2°
